Wind_Speed
22 20 17 14 11 7 4 2 3 4 6 8 10 12 14 16 17 18 20 19 20 20
20 18 16 13 9 6 3 2 4 5 7 10 12 13 15 18 19 20 21 23 19 18
19 16 14 11 8 5 2 2 4 7 9 12 14 16 19 20 21 21 23 21 17 24
18 15 12 9 6 3 2 4 6 9 11 14 17 19 21 22 23 22 22 19 22 21
17 14 10 7 4 2 3 5 8 10 13 16 19 21 23 22 20 23 23 24 20 23
15 12 8 5 3 3 5 6 8 12 16 19 21 23 22 20 24 25 25 23 20 23
13 9 6 4 2 3 5 8 11 14 17 19 21 22 20 24 25 26 25 23 22 24
11 8 5 2 2 3 6 9 13 16 19 20 23 19 23 25 26 26 27 26 26 26
10 6 4 1 2 5 8 12 16 18 19 21 23 21 22 24 27 28 28 29 27 28
8 5 2 1 4 7 11 15 17 19 20 22 24 21 23 24 26 26 24 27 28 28
7 4 1 2 5 8 13 16 17 19 20 21 22 21 23 25 24 27 27 26 25 26
5 2 1 4 7 11 15 17 18 20 21 22 22 22 24 25 26 24 26 24 24 25
4 1 3 6 9 13 15 16 18 21 21 21 23 23 23 24 24 23 26 25 24 23
2 2 5 7 11 14 16 18 21 22 23 22 21 23 22 23 25 25 26 24 24 27
Wind_Direction
153 153 150 151 151 150 138 90 25 7 1 359 356 351 345 341 338 335 333 332 330 325
151 150 148 147 146 138 122 48 3 356 353 352 349 345 340 338 335 332 333 330 327 325
147 147 146 145 142 132 101 18 355 350 348 345 343 344 341 337 334 332 329 327 321 324
146 146 145 144 132 109 54 10 352 347 345 343 344 342 338 335 332 324 323 323 321 323
147 148 147 138 119 83 25 0 350 347 344 344 342 339 335 332 330 327 323 323 319 321
150 151 147 134 111 34 5 352 352 347 346 344 340 335 335 332 328 326 324 320 312 320
154 154 145 130 71 18 358 350 348 348 345 343 339 338 334 329 328 327 322 318 315 319
155 154 145 115 40 3 354 354 349 347 344 344 344 339 332 331 328 326 325 323 319 316
157 154 147 99 5 354 356 350 349 350 348 346 345 339 335 331 328 329 330 328 326 321
158 159 152 33 358 356 353 349 347 348 349 346 344 340 337 337 334 334 333 327 323 319
161 160 118 5 355 351 349 348 347 346 345 342 342 340 341 338 334 329 325 322 319 318
160 148 19 350 351 352 344 342 342 341 341 341 342 342 339 336 330 320 318 316 313 317
154 120 359 351 350 346 341 336 337 338 344 345 343 341 334 332 325 321 315 315 313 316
137 33 355 349 346 342 341 339 340 342 345 347 345 334 329 330 328 322 320 321 320 321
Height
773 776 779 782 784 786 787 788 788 788 787 786 784 782 780 778 775 773 771 768 765 762
773 776 779 782 784 786 787 787 787 786 785 783 781 780 778 775 773 770 767 764 761 759
773 777 780 782 784 785 786 786 786 785 783 781 779 777 775 772 770 767 764 761 758 755
774 777 781 783 784 784 784 784 784 782 781 779 777 774 772 769 766 764 760 757 754 751
775 778 781 783 783 784 783 783 782 781 779 777 774 772 769 765 763 759 756 753 750 747
776 779 781 782 782 782 782 782 781 779 777 774 771 768 765 763 760 756 752 748 746 743
776 779 780 781 781 781 781 780 779 777 775 772 769 766 762 759 755 751 748 744 741 738
776 778 779 780 781 781 780 779 777 774 772 769 766 763 759 755 750 747 743 740 737 733
776 777 779 780 780 779 778 777 775 772 770 766 763 760 757 752 747 743 739 735 732 728
775 777 778 779 778 777 777 775 773 771 768 764 761 758 754 749 743 740 737 732 728 723
775 777 777 777 777 777 775 774 771 769 766 763 758 754 749 745 741 737 733 729 724 719
775 775 776 776 776 775 774 772 769 767 763 759 755 751 746 742 738 733 728 724 720 716
774 774 775 775 775 774 772 769 767 764 760 756 752 748 744 741 735 729 723 718 714 710
773 774 775 774 774 772 770 767 764 760 756 753 749 746 743 739 733 727 720 714 709 704